Waarnemingen

Advertentie
Mijn weer
UFS Deutsche Bucht, Duitsland (10007): temperatuur & dauwpunt: 16.01.2018 21:00:00 - 22.01.2018 21:00:00 (CET)UFS Deutsche Bucht, Duitsland (10007): windsnelheid & windstoten: 16.01.2018 21:00:00 - 22.01.2018 21:00:00 (CET)UFS Deutsche Bucht, Duitsland (10007): windrichting: 16.01.2018 21:00:00 - 22.01.2018 21:00:00 (CET)UFS Deutsche Bucht, Duitsland (10007): luchtdruk: 16.01.2018 21:00:00 - 22.01.2018 21:00:00 (CET)UFS Deutsche Bucht, Duitsland (10007): zicht: 16.01.2018 21:00:00 - 22.01.2018 21:00:00 (CET)UFS Deutsche Bucht, Duitsland (10007): Zonneschijnduur: 16.01.2018 21:00:00 - 22.01.2018 21:00:00 (CET)
Datum & Tijd tt [°C] td [°C] ff [km/u] ff [kn] fx [km/u] fx [kn] dd ppp [hPa] vv [km] sd [min]
22.01.2018 21:00:00 - - - - - - - - - -
22.01.2018 20:00:00 6,0 5,2 11 6 - - W 1009,4 9 0
22.01.2018 19:00:00 4,8 3,9 11 6 - - ZZO 1008,6 4,9 0
22.01.2018 18:00:00 4,2 3,3 11 6 - - Z 1008,0 7 0
22.01.2018 17:00:00 3,7 2,7 7 4 - - Z 1006,9 6 0
22.01.2018 16:00:00 3,5 2,0 7 4 - - ZZW 1006,1 10 0
22.01.2018 15:00:00 3,3 1,8 7 4 - - ZZW 1005,4 10 0
22.01.2018 14:00:00 3,1 1,7 14 8 - - ZZW 1005,1 8 0
22.01.2018 13:00:00 2,7 1,2 18 10 - - Z 1005,0 9 0
22.01.2018 12:00:00 2,8 1,1 25 14 - - Z 1004,9 9 0
22.01.2018 11:00:00 2,7 0,9 32 18 - - ZZO 1004,8 9 0
22.01.2018 10:00:00 2,5 0,6 40 21 - - ZZO 1004,8 10 0
22.01.2018 09:00:00 2,6 0,8 43 23 54 29 ZO 1004,7 9 0
22.01.2018 08:00:00 2,6 0,9 47 25 58 31 ZO 1004,8 9 0
22.01.2018 07:00:00 2,7 0,9 47 25 - - ZO 1004,8 8 0
22.01.2018 06:00:00 2,7 0,9 43 23 50 27 ZO 1005,8 10 0
22.01.2018 05:00:00 3,2 0,5 40 21 50 27 ZZO 1007,0 10 0
22.01.2018 04:00:00 3,6 1,3 36 19 - - ZO 1007,2 9 0
22.01.2018 03:00:00 3,6 1,6 36 19 - - ZZO 1007,8 9 0
22.01.2018 02:00:00 3,7 1,8 36 19 - - Z 1008,8 10 0
22.01.2018 01:00:00 3,5 1,8 36 19 - - ZZO 1009,6 9 0
22.01.2018 00:00:00 3,5 2,2 36 19 - - Z 1011,0 10 0
21.01.2018 23:00:00 3,2 1,9 32 18 - - Z 1011,6 9 0
21.01.2018 22:00:00 3,2 2,2 29 16 - - Z 1012,6 8 0
21.01.2018 21:00:00 2,8 1,7 32 18 - - Z 1012,8 9 0
21.01.2018 20:00:00 2,5 1,7 29 16 - - Z 1014,0 4,7 0
21.01.2018 19:00:00 2,9 1,7 29 16 - - ZZO 1014,4 10 0
21.01.2018 18:00:00 3,4 2,1 29 16 - - ZZO 1014,0 10 0
21.01.2018 17:00:00 3,3 1,2 22 12 - - ZZO 1014,4 10 0
21.01.2018 16:00:00 4,0 1,1 14 8 - - ZZO 1014,4 10 0
21.01.2018 15:00:00 4,0 -0,1 14 8 - - Z 1014,0 10 24
21.01.2018 14:00:00 3,6 1,4 14 8 - - ZZW 1013,8 10 6
21.01.2018 13:00:00 2,4 1,5 14 8 - - Z 1013,5 10 18
21.01.2018 12:00:00 2,6 1,2 18 10 - - Z 1013,3 1,0 24
21.01.2018 11:00:00 2,4 1,3 22 12 - - Z 1012,6 9 0
21.01.2018 10:00:00 2,7 1,2 22 12 - - ZZO 1011,7 10 0
21.01.2018 09:00:00 3,4 0,7 14 8 - - NW 1010,8 10 0
21.01.2018 08:00:00 3,7 1,2 7 4 - - NO 1009,6 10 0
21.01.2018 07:00:00 4,0 1,3 11 6 - - ONO 1008,3 10 0
21.01.2018 06:00:00 3,9 1,3 7 4 - - NNO 1007,4 10 0
21.01.2018 05:00:00 4,2 1,2 14 8 - - N 1006,3 10 0
21.01.2018 04:00:00 4,6 0,6 14 8 - - NW 1005,0 10 0
21.01.2018 03:00:00 4,0 0,9 11 6 - - ZW 1004,3 10 0
21.01.2018 02:00:00 3,7 1,4 18 10 - - ZW 1003,2 10 0
21.01.2018 01:00:00 3,3 1,8 22 12 - - ZZW 1002,4 10 0
21.01.2018 00:00:00 1,8 1,0 14 8 - - ZZW 1002,0 10 0
20.01.2018 23:00:00 1,3 0,4 22 12 - - ZW 1001,5 7 0
20.01.2018 22:00:00 3,6 1,5 25 14 - - ZZW 1001,1 8 0
20.01.2018 21:00:00 3,5 1,4 22 12 - - ZZW 1001,0 9 0
20.01.2018 20:00:00 3,3 1,5 22 12 - - Z 1000,5 9 0
20.01.2018 19:00:00 3,1 1,3 22 12 - - ZZW 1000,6 8 0
20.01.2018 18:00:00 3,2 1,4 25 14 - - ZZW 1000,3 8 0
20.01.2018 17:00:00 3,2 1,6 29 16 - - ZZW 1000,2 9 0
20.01.2018 16:00:00 3,1 1,4 22 12 - - ZZW 1000,0 10 0
20.01.2018 15:00:00 3,0 1,6 25 14 - - ZW 1000,1 8 0
20.01.2018 14:00:00 3,1 1,5 32 18 47 25 ZW 1000,2 9 12
20.01.2018 13:00:00 3,3 1,4 40 21 - - ZW 1000,7 0,8 12
20.01.2018 12:00:00 3,6 1,7 32 18 - - ZW 1001,5 10 18
20.01.2018 11:00:00 3,5 1,5 36 19 47 25 ZW 1001,6 9 0
20.01.2018 10:00:00 3,3 1,6 40 21 - - ZZW 1001,7 10 0
20.01.2018 09:00:00 2,9 1,3 40 21 47 25 ZZW 1001,9 10 0
20.01.2018 08:00:00 3,5 1,7 40 21 58 31 ZW 1002,2 10 0
20.01.2018 07:00:00 3,5 1,7 40 21 - - ZW 1002,4 10 0
20.01.2018 06:00:00 3,3 1,3 40 21 58 31 ZW 1002,5 10 0
20.01.2018 05:00:00 3,5 1,9 40 21 50 27 ZZW 1002,8 10 0
20.01.2018 04:00:00 4,0 1,5 32 18 - - ZW 1003,2 10 0
20.01.2018 03:00:00 4,0 1,8 32 18 - - ZW 1003,2 10 0
20.01.2018 02:00:00 4,1 0,9 25 14 50 27 ZW 1003,5 10 0
20.01.2018 01:00:00 4,2 1,6 18 10 - - ZZW 1003,7 10 0
20.01.2018 00:00:00 4,4 0,9 25 14 - - ZW 1004,0 10 0
19.01.2018 23:00:00 4,4 0,4 29 16 - - WZW 1003,8 10 0
19.01.2018 22:00:00 4,5 1,0 32 18 - - WZW 1003,8 9 0
19.01.2018 21:00:00 5,2 1,4 32 18 - - WZW 1003,8 10 0
19.01.2018 20:00:00 4,6 1,6 22 12 50 27 W 1003,9 10 0
19.01.2018 19:00:00 3,5 0,7 36 19 - - W 1004,0 9 0
19.01.2018 18:00:00 3,8 1,3 50 27 61 33 W 1003,8 10 0
19.01.2018 17:00:00 4,2 1,0 25 14 58 31 W 1003,6 10 0
19.01.2018 16:00:00 5,1 1,8 36 19 - - WZW 1003,4 10 0
19.01.2018 15:00:00 5,4 1,4 29 16 54 29 W 1003,2 10 0
19.01.2018 14:00:00 5,2 1,5 25 14 - - W 1002,9 10 18
19.01.2018 13:00:00 4,4 1,4 18 10 - - W 1002,8 1,8 6
19.01.2018 12:00:00 3,6 1,4 29 16 - - W 1003,1 8 0
19.01.2018 11:00:00 4,4 2,4 22 12 - - ZZW 1002,8 10 6
19.01.2018 10:00:00 4,5 0,9 25 14 - - WZW 1002,4 10 0
19.01.2018 09:00:00 3,9 0,6 18 10 - - W 1002,1 10 0
19.01.2018 08:00:00 4,4 0,6 22 12 - - W 1001,6 10 0
19.01.2018 07:00:00 5,4 2,0 25 14 - - W 1000,8 10 0
19.01.2018 06:00:00 5,1 1,0 18 10 - - W 1000,5 10 0
19.01.2018 05:00:00 5,3 1,2 25 14 - - W 1000,0 10 0
19.01.2018 04:00:00 5,0 1,4 25 14 - - W 999,7 10 0
19.01.2018 03:00:00 5,1 1,7 25 14 - - W 999,4 10 0
19.01.2018 02:00:00 4,8 1,5 25 14 - - W 999,1 10 0
19.01.2018 01:00:00 4,3 1,0 25 14 - - WNW 998,9 10 0
19.01.2018 00:00:00 4,5 1,8 18 10 - - W 998,4 10 0
18.01.2018 23:00:00 3,8 1,0 22 12 50 27 WNW 998,2 10 0
18.01.2018 22:00:00 4,8 0,9 29 16 - - W 997,6 10 0
18.01.2018 21:00:00 4,5 1,3 18 10 47 25 W 997,3 10 0
18.01.2018 20:00:00 4,9 2,2 25 14 - - W 996,4 10 0
18.01.2018 19:00:00 4,5 2,2 29 16 - - W 995,7 10 0
18.01.2018 18:00:00 3,9 1,8 29 16 54 29 NW 994,9 10 0
18.01.2018 17:00:00 3,8 1,9 40 21 54 29 WNW 993,6 8 0
18.01.2018 16:00:00 3,5 1,6 25 14 - - NW 992,6 9 0
18.01.2018 15:00:00 3,8 1,3 36 19 54 29 NNW 990,9 10 0
18.01.2018 14:00:00 3,4 1,6 47 25 68 37 N 988,2 9 0
18.01.2018 13:00:00 2,7 1,6 54 29 - - NNO 984,6 7 0
18.01.2018 12:00:00 2,5 1,6 58 31 68 37 NO 981,0 10 0
18.01.2018 11:00:00 1,9 1,2 58 31 68 37 O 978,7 6 0
18.01.2018 10:00:00 1,3 0,7 54 29 - - O 979,8 2,7 0
18.01.2018 09:00:00 1,3 0,3 50 27 58 31 OZO 982,1 2,1 0
18.01.2018 08:00:00 1,8 0,4 40 21 47 25 ZO 985,1 4,7 0
18.01.2018 07:00:00 3,5 1,5 36 19 - - Z 988,4 10 0
18.01.2018 06:00:00 4,4 1,4 47 25 61 33 ZZW 990,9 10 0
18.01.2018 05:00:00 5,1 2,2 43 23 72 39 ZW 992,7 10 0
18.01.2018 04:00:00 5,3 2,5 47 25 - - ZW 994,3 10 0
18.01.2018 03:00:00 5,4 1,9 40 21 68 37 WZW 996,0 10 0
18.01.2018 02:00:00 4,1 1,6 54 29 68 37 WZW 996,4 4,1 0
18.01.2018 01:00:00 5,9 1,7 43 23 - - W 997,2 10 0
18.01.2018 00:00:00 5,4 1,4 43 23 65 35 W 997,6 9 0
17.01.2018 23:00:00 6,1 1,8 43 23 54 29 W 997,3 10 0
17.01.2018 22:00:00 5,4 2,0 47 25 - - W 997,6 10 0
17.01.2018 21:00:00 5,7 2,3 50 27 65 35 W 997,0 10 0
17.01.2018 20:00:00 4,9 0,7 40 21 65 35 WNW 997,1 10 0
17.01.2018 19:00:00 4,7 1,2 43 23 - - W 996,7 10 0
17.01.2018 18:00:00 4,6 1,2 50 27 65 35 W 996,1 10 0
17.01.2018 17:00:00 3,6 0,8 50 27 79 43 WNW 995,3 10 0
17.01.2018 16:00:00 4,8 1,5 29 16 - - W 994,2 10 6
17.01.2018 15:00:00 2,9 -1,0 36 19 54 29 WNW 993,3 2,3 48
17.01.2018 14:00:00 4,5 0,5 43 23 54 29 W 992,6 0,3 30
17.01.2018 13:00:00 5,3 -0,2 40 21 - - W 991,8 0,6 36
17.01.2018 12:00:00 2,6 0,0 22 12 - - NW 991,8 9 0
17.01.2018 11:00:00 3,6 0,6 36 19 65 35 NW 990,8 10 6
17.01.2018 10:00:00 5,1 0,0 47 25 - - W 989,7 10 0
17.01.2018 09:00:00 5,1 0,3 40 21 54 29 W 989,1 10 0
17.01.2018 08:00:00 4,6 -0,3 40 21 61 33 W 988,1 10 0
17.01.2018 07:00:00 4,6 -0,6 40 21 - - W 987,2 10 0
17.01.2018 06:00:00 4,1 0,9 29 16 54 29 W 986,7 10 0
17.01.2018 05:00:00 3,3 -0,5 29 16 58 31 WNW 986,0 10 0
17.01.2018 04:00:00 3,9 1,7 29 16 - - W 985,8 8 0
17.01.2018 03:00:00 2,4 0,1 40 21 61 33 W 986,2 7 0
17.01.2018 02:00:00 4,4 1,0 36 19 50 27 ZW 985,7 10 0
17.01.2018 01:00:00 5,0 0,2 32 18 - - W 985,9 10 0
17.01.2018 00:00:00 4,7 0,8 32 18 68 37 W 986,2 8 0
16.01.2018 23:00:00 5,2 1,1 32 18 61 33 W 986,2 10 0
16.01.2018 22:00:00 5,3 1,1 36 19 - - W 986,2 10 0
16.01.2018 21:00:00 5,2 0,9 36 19 61 33 WZW 986,3 10 0

tt = temperatuur
td = dauwpunt
ff = windsnelheid
fx = windstoten
dd = windrichting
ppp = luchtdruk
vv = zicht
sd = Zonneschijnduur

Weerstations in de omgeving